Weather History for KMBG - May, 2013

Change the Weather History Date:

Tuesday, May 7, 2013

  Actual Average Record
Temperature  
Mean Temperature 57 °F 53 °F  
Max Temperature 76 °F 66 °F 94 °F (1992)
Min Temperature 37 °F 41 °F 20 °F (1929)
Degree Days  
Heating Degree Days 8 12  
Month to date heating degree days 141 89  
Since 1 July heating degree days 8039 7684  
Cooling Degree Days 0 0  
Month to date cooling degree days 0 0  
Year to date cooling degree days 0 1  
Growing Degree Days 7 (Base 50)    
Moisture  
Dew Point 38 °F    
Average Humidity 56    
Maximum Humidity 85    
Minimum Humidity 27    
Precipitation  
Precipitation 0.00 in 0.09 in 1.30 in (1927)
Month to date precipitation 0.00 0.61  
Year to date precipitation 3.05 3.81  
Sea Level Pressure  
Sea Level Pressure 29.90 in    
Wind  
Wind Speed 9 mph (SE)    
Max Wind Speed 25 mph    
Max Gust Speed 31 mph    
Visibility 10 miles    
Events      
T = Trace of Precipitation, MM = Missing Value Source: NWS Daily Summary

Daily Weather History Graph

Daily Weather History Graph

Search for Another Location

Airport or City:

Trip Planner

Search our weather history database for the weather conditions in past years. The results will help you decide how hot, cold, wet, or windy it might be!

Date:

Astronomy

May. 07, 2013 Rise Set
Actual Time 6:20 AM CDT 8:56 PM CDT
Civil Twilight 5:47 AM CDT 9:30 PM CDT
Nautical Twilight 5:04 AM CDT 10:12 PM CDT
Astronomical Twilight 4:16 AM CDT 11:01 PM CDT
Moon 5:02 AM CDT (5/7) 6:53 PM CDT (5/7)
Length of Visible Light 15h 43m
Length of Day
14h 35m
Waning Crescent, 5% of the Moon is Illuminated
May 7
Waning Crescent
May 9
New
May 17
First Quarter
May 24
Full
May 31
Last Quarter

Hourly Weather History & Observations

Time (CDT) Temp. Windchill Dew Point Humidity Pressure Visibility Wind Dir Wind Speed Gust Speed Precip Events Conditions
12:52 AM 46.0 °F 43.9 °F 37.0 °F 71% 29.99 in 10.0 mi ESE 4.6 mph - N/A   Clear
1:52 AM 46.9 °F - 37.9 °F 71% 29.98 in 10.0 mi ESE 4.6 mph - N/A   Clear
2:52 AM 46.0 °F 43.9 °F 37.0 °F 71% 29.97 in 10.0 mi SE 4.6 mph - N/A   Clear
3:52 AM 45.0 °F 41.8 °F 37.0 °F 74% 29.96 in 10.0 mi ESE 5.8 mph - N/A   Clear
4:52 AM 45.0 °F 41.8 °F 37.9 °F 76% 29.96 in 10.0 mi ESE 5.8 mph - N/A   Clear
5:52 AM 39.9 °F 37.8 °F 35.1 °F 83% 29.96 in 10.0 mi ESE 3.5 mph - N/A   Clear
6:52 AM 45.0 °F 41.8 °F 39.0 °F 80% 29.94 in 10.0 mi East 5.8 mph - N/A   Clear
7:52 AM 48.9 °F - 39.9 °F 71% 29.94 in 10.0 mi East 5.8 mph - N/A   Clear
8:52 AM 54.0 °F - 41.0 °F 62% 29.94 in 10.0 mi East 8.1 mph - N/A   Clear
9:52 AM 59.0 °F - 41.0 °F 51% 29.93 in 10.0 mi SSE 5.8 mph - N/A   Clear
10:52 AM 63.0 °F - 39.9 °F 43% 29.91 in 10.0 mi SSE 9.2 mph - N/A   Clear
11:52 AM 66.9 °F - 39.9 °F 37% 29.90 in 10.0 mi South 8.1 mph - N/A   Clear
12:52 PM 69.1 °F - 35.1 °F 29% 29.89 in 10.0 mi South 10.4 mph - N/A   Scattered Clouds
1:52 PM 72.0 °F - 37.0 °F 28% 29.87 in 10.0 mi SSE 11.5 mph 19.6 mph N/A   Partly Cloudy
2:52 PM 75.0 °F - 39.9 °F 28% 29.85 in 10.0 mi SSE 19.6 mph 26.5 mph N/A   Partly Cloudy
3:52 PM 73.9 °F - 41.0 °F 30% 29.83 in 10.0 mi SSE 19.6 mph - N/A   Clear
4:52 PM 75.0 °F - 41.0 °F 29% 29.82 in 10.0 mi South 17.3 mph 26.5 mph N/A   Clear
5:52 PM 73.9 °F - 37.9 °F 27% 29.83 in 10.0 mi South 20.7 mph 26.5 mph N/A   Clear
6:52 PM 73.0 °F - 37.0 °F 27% 29.82 in 10.0 mi South 16.1 mph - N/A   Clear
7:52 PM 70.0 °F - 37.9 °F 31% 29.82 in 10.0 mi South 11.5 mph - N/A   Clear
8:52 PM 63.0 °F - 39.0 °F 41% 29.84 in 10.0 mi South 9.2 mph - N/A   Clear
9:52 PM 55.0 °F - 37.9 °F 53% 29.86 in 10.0 mi ESE 4.6 mph - N/A   Clear
10:52 PM 55.9 °F - 37.9 °F 51% 29.88 in 10.0 mi ESE 6.9 mph - N/A   Clear
11:52 PM 55.0 °F - 37.9 °F 53% 29.88 in 10.0 mi East 5.8 mph - N/A   Clear